Time,TemperatureF,DewpointF,PressureIn,WindDirection,WindDirectionDegrees,WindSpeedMPH,WindSpeedGustMPH,Humidity,HourlyPrecipIn,Conditions,Clouds,dailyrainin,SoftwareType,DateUTC
2013-01-29 00:00:00,27.0,28.0,26.81,NNE,22,2.0,2.0,100,0.00,,,0.00,Rainwise IP-100,2013-01-29 07:00:00,
2013-01-29 00:05:00,27.0,28.0,26.81,NNE,22,1.0,3.0,100,0.00,,,0.00,Rainwise IP-100,2013-01-29 07:05:00,
2013-01-29 00:10:00,27.0,28.0,26.80,NNE,22,0.0,2.0,100,0.00,,,0.00,Rainwise IP-100,2013-01-29 07:10:00,
2013-01-29 00:15:00,27.0,28.0,26.80,NNW,337,3.0,3.0,100,0.00,,,0.00,Rainwise IP-100,2013-01-29 07:15:00,
2013-01-29 00:20:00,28.0,28.0,26.81,NW,315,3.0,5.0,100,0.00,,,0.00,Rainwise IP-100,2013-01-29 07:20:00,
2013-01-29 00:25:00,28.0,28.0,26.81,NW,315,2.0,3.0,100,0.00,,,0.00,Rainwise IP-100,2013-01-29 07:25:00,
2013-01-29 00:30:00,28.0,28.0,26.81,NW,315,1.0,2.0,100,0.00,,,0.00,Rainwise IP-100,2013-01-29 07:30:00,
2013-01-29 00:35:00,28.0,28.0,26.81,NW,315,2.0,5.0,100,0.00,,,0.00,Rainwise IP-100,2013-01-29 07:35:00,
2013-01-29 00:40:00,28.0,28.0,26.81,NW,315,1.0,4.0,100,0.00,,,0.00,Rainwise IP-100,2013-01-29 07:40:00,
2013-01-29 00:45:00,28.0,28.0,26.81,NW,315,0.0,3.0,100,0.00,,,0.00,Rainwise IP-100,2013-01-29 07:45:00,
2013-01-29 00:50:00,28.0,28.0,26.81,NW,315,3.0,4.0,100,0.00,,,0.00,Rainwise IP-100,2013-01-29 07:50:00,
2013-01-29 00:55:00,28.0,28.0,26.81,NW,315,2.0,6.0,100,0.00,,,0.00,Rainwise IP-100,2013-01-29 07:55:00,
2013-01-29 01:00:00,27.0,28.0,26.81,NNW,337,3.0,6.0,100,0.00,,,0.00,Rainwise IP-100,2013-01-29 08:00:00,
2013-01-29 01:05:00,27.0,28.0,26.81,NW,315,5.0,7.0,100,0.00,,,0.00,Rainwise IP-100,2013-01-29 08:05:00,
2013-01-29 01:10:00,27.0,28.0,26.81,WNW,292,3.0,6.0,100,0.00,,,0.00,Rainwise IP-100,2013-01-29 08:10:00,
2013-01-29 01:15:00,27.0,28.0,26.81,WSW,247,4.0,5.0,100,0.00,,,0.00,Rainwise IP-100,2013-01-29 08:15:00,
2013-01-29 01:20:00,27.0,28.0,26.81,West,270,2.0,8.0,98,0.00,,,0.00,Rainwise IP-100,2013-01-29 08:20:00,
2013-01-29 01:25:00,27.0,28.0,26.81,West,270,0.0,5.0,98,0.00,,,0.00,Rainwise IP-100,2013-01-29 08:25:00,
2013-01-29 01:30:00,27.0,28.0,26.81,NW,315,4.0,4.0,97,0.00,,,0.00,Rainwise IP-100,2013-01-29 08:30:00,
2013-01-29 01:35:00,27.0,28.0,26.81,NW,315,0.0,4.0,98,0.00,,,0.00,Rainwise IP-100,2013-01-29 08:35:00,
2013-01-29 01:40:00,27.0,28.0,26.81,NW,315,0.0,1.0,98,0.00,,,0.00,Rainwise IP-100,2013-01-29 08:40:00,
2013-01-29 01:45:00,27.0,28.0,26.81,NW,315,0.0,0.0,98,0.00,,,0.00,Rainwise IP-100,2013-01-29 08:45:00,
2013-01-29 01:50:00,26.0,26.0,26.82,NW,315,0.0,0.0,99,0.00,,,0.00,Rainwise IP-100,2013-01-29 08:50:00,
2013-01-29 01:53:00,26.0,26.0,26.82,NW,315,0.0,0.0,99,0.00,,,0.00,Rainwise IP-100,2013-01-29 08:53:00,
2013-01-29 01:55:00,26.0,26.0,26.82,NW,315,0.0,0.0,99,0.00,,,0.00,Rainwise IP-100,2013-01-29 08:55:00,
2013-01-29 02:00:00,26.0,26.0,26.82,NW,315,0.0,0.0,99,0.00,,,0.00,Rainwise IP-100,2013-01-29 09:00:00,
2013-01-29 02:06:00,26.0,26.0,26.82,NW,315,0.0,0.0,100,0.00,,,0.00,Rainwise IP-100,2013-01-29 09:06:00,
2013-01-29 02:11:00,26.0,26.0,26.82,West,270,0.0,0.0,100,0.00,,,0.00,Rainwise IP-100,2013-01-29 09:11:00,
2013-01-29 02:16:00,26.0,26.0,26.82,SSE,157,0.0,2.0,100,0.00,,,0.00,Rainwise IP-100,2013-01-29 09:16:00,
2013-01-29 02:21:00,26.0,26.0,26.82,SSE,157,0.0,1.0,100,0.00,,,0.00,Rainwise IP-100,2013-01-29 09:21:00,
2013-01-29 02:26:00,26.0,26.0,26.82,SSE,157,0.0,1.0,100,0.00,,,0.00,Rainwise IP-100,2013-01-29 09:26:00,
2013-01-29 02:31:00,26.0,26.0,26.82,SSE,157,1.0,2.0,100,0.00,,,0.00,Rainwise IP-100,2013-01-29 09:31:00,
2013-01-29 02:36:00,26.0,26.0,26.82,SSE,157,0.0,2.0,100,0.00,,,0.00,Rainwise IP-100,2013-01-29 09:36:00,
2013-01-29 02:41:00,25.0,26.0,26.82,SSE,157,0.0,0.0,99,0.00,,,0.00,Rainwise IP-100,2013-01-29 09:41:00,
2013-01-29 02:46:00,25.0,26.0,26.82,SSE,157,0.0,0.0,100,0.00,,,0.00,Rainwise IP-100,2013-01-29 09:46:00,
2013-01-29 02:51:00,25.0,26.0,26.83,SSE,157,0.0,0.0,100,0.00,,,0.00,Rainwise IP-100,2013-01-29 09:51:00,
2013-01-29 02:56:00,25.0,26.0,26.83,SSE,157,0.0,0.0,100,0.00,,,0.00,Rainwise IP-100,2013-01-29 09:56:00,
2013-01-29 03:02:00,25.0,26.0,26.83,SSE,157,0.0,0.0,100,0.00,,,0.00,Rainwise IP-100,2013-01-29 10:02:00,
2013-01-29 03:07:00,25.0,26.0,26.83,SSE,157,0.0,0.0,100,0.00,,,0.00,Rainwise IP-100,2013-01-29 10:07:00,
2013-01-29 03:12:00,25.0,26.0,26.83,SSE,157,0.0,0.0,100,0.00,,,0.00,Rainwise IP-100,2013-01-29 10:12:00,
2013-01-29 03:17:00,25.0,26.0,26.83,SSE,157,0.0,0.0,100,0.00,,,0.00,Rainwise IP-100,2013-01-29 10:17:00,
2013-01-29 03:22:00,25.0,26.0,26.83,SSE,157,0.0,0.0,100,0.00,,,0.00,Rainwise IP-100,2013-01-29 10:22:00,
2013-01-29 03:27:00,25.0,26.0,26.83,SSE,157,0.0,0.0,100,0.00,,,0.00,Rainwise IP-100,2013-01-29 10:27:00,
2013-01-29 03:32:00,25.0,26.0,26.84,SSE,157,0.0,0.0,100,0.00,,,0.00,Rainwise IP-100,2013-01-29 10:32:00,
2013-01-29 03:37:00,25.0,26.0,26.84,SSE,157,0.0,0.0,100,0.00,,,0.00,Rainwise IP-100,2013-01-29 10:37:00,
2013-01-29 03:42:00,25.0,26.0,26.84,SSE,157,0.0,0.0,100,0.00,,,0.00,Rainwise IP-100,2013-01-29 10:42:00,
2013-01-29 03:47:00,25.0,26.0,26.84,SSE,157,0.0,0.0,100,0.00,,,0.00,Rainwise IP-100,2013-01-29 10:47:00,
2013-01-29 03:52:00,25.0,26.0,26.84,SSE,157,0.0,0.0,100,0.00,,,0.00,Rainwise IP-100,2013-01-29 10:52:00,
2013-01-29 03:57:00,25.0,26.0,26.84,SSE,157,0.0,0.0,100,0.00,,,0.00,Rainwise IP-100,2013-01-29 10:57:00,
2013-01-29 04:01:00,25.0,26.0,26.84,SSE,157,0.0,0.0,100,0.00,,,0.00,Rainwise IP-100,2013-01-29 11:01:00,
2013-01-29 04:06:00,25.0,26.0,26.84,SSE,157,0.0,0.0,100,0.00,,,0.00,Rainwise IP-100,2013-01-29 11:06:00,
2013-01-29 04:11:00,25.0,26.0,26.84,SSE,157,0.0,0.0,100,0.00,,,0.00,Rainwise IP-100,2013-01-29 11:11:00,
2013-01-29 04:16:00,26.0,26.0,26.84,SSE,157,0.0,0.0,100,0.00,,,0.00,Rainwise IP-100,2013-01-29 11:16:00,
2013-01-29 04:21:00,26.0,26.0,26.85,SSE,157,0.0,0.0,100,0.00,,,0.00,Rainwise IP-100,2013-01-29 11:21:00,
2013-01-29 04:26:00,26.0,26.0,26.85,SSE,157,0.0,0.0,100,0.00,,,0.00,Rainwise IP-100,2013-01-29 11:26:00,
2013-01-29 04:31:00,26.0,26.0,26.85,SSE,157,0.0,0.0,100,0.00,,,0.00,Rainwise IP-100,2013-01-29 11:31:00,
2013-01-29 04:36:00,26.0,26.0,26.85,SSE,157,0.0,0.0,100,0.00,,,0.00,Rainwise IP-100,2013-01-29 11:36:00,
2013-01-29 04:41:00,26.0,26.0,26.85,SSE,157,0.0,0.0,100,0.00,,,0.00,Rainwise IP-100,2013-01-29 11:41:00,
2013-01-29 04:46:00,26.0,26.0,26.85,SSE,157,0.0,0.0,100,0.00,,,0.00,Rainwise IP-100,2013-01-29 11:46:00,
2013-01-29 04:51:00,26.0,26.0,26.85,SSE,157,0.0,0.0,100,0.00,,,0.00,Rainwise IP-100,2013-01-29 11:51:00,
2013-01-29 04:56:00,26.0,26.0,26.85,SSE,157,0.0,0.0,100,0.00,,,0.00,Rainwise IP-100,2013-01-29 11:56:00,
2013-01-29 05:01:00,26.0,26.0,26.86,SSE,157,0.0,0.0,100,0.00,,,0.00,Rainwise IP-100,2013-01-29 12:01:00,
2013-01-29 05:06:00,26.0,26.0,26.86,West,270,2.0,4.0,100,0.00,,,0.00,Rainwise IP-100,2013-01-29 12:06:00,
2013-01-29 05:11:00,26.0,26.0,26.86,West,270,1.0,3.0,100,0.00,,,0.00,Rainwise IP-100,2013-01-29 12:11:00,
2013-01-29 05:16:00,26.0,26.0,26.86,West,270,2.0,2.0,100,0.00,,,0.00,Rainwise IP-100,2013-01-29 12:16:00,
2013-01-29 05:21:00,26.0,26.0,26.86,West,270,3.0,3.0,100,0.00,,,0.00,Rainwise IP-100,2013-01-29 12:21:00,
2013-01-29 05:26:00,26.0,26.0,26.86,West,270,1.0,3.0,100,0.00,,,0.00,Rainwise IP-100,2013-01-29 12:26:00,
2013-01-29 05:31:00,26.0,26.0,26.86,West,270,1.0,3.0,100,0.00,,,0.00,Rainwise IP-100,2013-01-29 12:31:00,
2013-01-29 05:36:00,26.0,26.0,26.86,West,270,0.0,2.0,100,0.00,,,0.00,Rainwise IP-100,2013-01-29 12:36:00,
2013-01-29 05:41:00,26.0,26.0,26.86,NW,315,1.0,4.0,100,0.00,,,0.00,Rainwise IP-100,2013-01-29 12:41:00,
2013-01-29 05:46:00,26.0,26.0,26.86,NW,315,1.0,3.0,100,0.00,,,0.00,Rainwise IP-100,2013-01-29 12:46:00,
2013-01-29 05:51:00,26.0,26.0,26.87,WNW,292,2.0,4.0,100,0.00,,,0.00,Rainwise IP-100,2013-01-29 12:51:00,
2013-01-29 05:56:00,26.0,26.0,26.87,NNW,337,1.0,7.0,100,0.00,,,0.00,Rainwise IP-100,2013-01-29 12:56:00,
2013-01-29 06:01:00,26.0,26.0,26.87,NW,315,2.0,6.0,100,0.00,,,0.00,Rainwise IP-100,2013-01-29 13:01:00,
2013-01-29 06:06:00,26.0,26.0,26.87,NW,315,3.0,6.0,100,0.00,,,0.00,Rainwise IP-100,2013-01-29 13:06:00,
2013-01-29 06:11:00,26.0,26.0,26.87,WNW,292,0.0,6.0,100,0.00,,,0.00,Rainwise IP-100,2013-01-29 13:11:00,
2013-01-29 06:16:00,26.0,26.0,26.87,WNW,292,4.0,6.0,100,0.00,,,0.00,Rainwise IP-100,2013-01-29 13:16:00,
2013-01-29 06:21:00,26.0,26.0,26.88,NW,315,2.0,5.0,100,0.00,,,0.00,Rainwise IP-100,2013-01-29 13:21:00,
2013-01-29 06:26:00,26.0,26.0,26.88,WNW,292,2.0,4.0,100,0.00,,,0.00,Rainwise IP-100,2013-01-29 13:26:00,
2013-01-29 06:31:00,26.0,26.0,26.88,NW,315,4.0,5.0,100,0.00,,,0.00,Rainwise IP-100,2013-01-29 13:31:00,
2013-01-29 06:36:00,26.0,26.0,26.88,West,270,1.0,5.0,100,0.00,,,0.00,Rainwise IP-100,2013-01-29 13:36:00,
2013-01-29 06:41:00,26.0,26.0,26.89,West,270,0.0,4.0,100,0.00,,,0.00,Rainwise IP-100,2013-01-29 13:41:00,
2013-01-29 06:47:00,26.0,26.0,26.89,West,270,0.0,1.0,100,0.00,,,0.00,Rainwise IP-100,2013-01-29 13:47:00,
2013-01-29 06:52:00,26.0,26.0,26.89,West,270,0.0,3.0,100,0.00,,,0.00,Rainwise IP-100,2013-01-29 13:52:00,
2013-01-29 06:57:00,26.0,26.0,26.89,West,270,0.0,3.0,100,0.00,,,0.00,Rainwise IP-100,2013-01-29 13:57:00,
2013-01-29 07:02:00,26.0,26.0,26.89,West,270,0.0,0.0,100,0.00,,,0.00,Rainwise IP-100,2013-01-29 14:02:00,
2013-01-29 07:07:00,26.0,26.0,26.89,West,270,0.0,0.0,100,0.00,,,0.00,Rainwise IP-100,2013-01-29 14:07:00,
2013-01-29 07:12:00,26.0,26.0,26.90,West,270,0.0,0.0,100,0.00,,,0.00,Rainwise IP-100,2013-01-29 14:12:00,
2013-01-29 07:17:00,26.0,26.0,26.90,West,270,0.0,0.0,100,0.00,,,0.00,Rainwise IP-100,2013-01-29 14:17:00,
2013-01-29 07:22:00,26.0,26.0,26.91,West,270,0.0,0.0,100,0.00,,,0.00,Rainwise IP-100,2013-01-29 14:22:00,
2013-01-29 07:27:00,26.0,26.0,26.91,West,270,0.0,0.0,100,0.00,,,0.00,Rainwise IP-100,2013-01-29 14:27:00,
2013-01-29 07:32:00,26.0,26.0,26.91,SE,135,0.0,0.0,100,0.00,,,0.00,Rainwise IP-100,2013-01-29 14:32:00,
2013-01-29 07:37:00,26.0,26.0,26.91,SE,135,0.0,0.0,100,0.00,,,0.00,Rainwise IP-100,2013-01-29 14:37:00,
2013-01-29 07:42:00,26.0,26.0,26.91,SE,135,0.0,0.0,100,0.00,,,0.00,Rainwise IP-100,2013-01-29 14:42:00,
2013-01-29 07:47:00,26.0,26.0,26.91,SE,135,0.0,0.0,100,0.00,,,0.00,Rainwise IP-100,2013-01-29 14:47:00,
2013-01-29 07:52:00,26.0,26.0,26.92,SE,135,0.0,0.0,100,0.00,,,0.00,Rainwise IP-100,2013-01-29 14:52:00,
2013-01-29 07:57:00,26.0,26.0,26.92,SE,135,0.0,0.0,100,0.00,,,0.00,Rainwise IP-100,2013-01-29 14:57:00,
2013-01-29 08:02:00,26.0,26.0,26.92,SE,135,0.0,0.0,100,0.00,,,0.00,Rainwise IP-100,2013-01-29 15:02:00,
2013-01-29 08:07:00,26.0,26.0,26.92,SE,135,0.0,0.0,100,0.00,,,0.00,Rainwise IP-100,2013-01-29 15:07:00,
2013-01-29 08:12:00,26.0,26.0,26.92,SE,135,0.0,0.0,100,0.00,,,0.00,Rainwise IP-100,2013-01-29 15:12:00,
2013-01-29 08:17:00,26.0,26.0,26.92,SE,135,0.0,0.0,100,0.00,,,0.00,Rainwise IP-100,2013-01-29 15:17:00,
2013-01-29 08:22:00,26.0,26.0,26.92,SE,135,0.0,0.0,100,0.00,,,0.00,Rainwise IP-100,2013-01-29 15:22:00,
2013-01-29 08:27:00,26.0,26.0,26.92,SE,135,0.0,0.0,100,0.00,,,0.00,Rainwise IP-100,2013-01-29 15:27:00,
2013-01-29 08:32:00,26.0,26.0,26.93,SE,135,0.0,0.0,100,0.00,,,0.00,Rainwise IP-100,2013-01-29 15:32:00,
2013-01-29 08:37:00,26.0,26.0,26.93,SE,135,0.0,0.0,100,0.00,,,0.00,Rainwise IP-100,2013-01-29 15:37:00,
2013-01-29 08:42:00,26.0,26.0,26.93,SE,135,0.0,0.0,100,0.00,,,0.00,Rainwise IP-100,2013-01-29 15:42:00,
2013-01-29 08:47:00,26.0,26.0,26.93,SE,135,0.0,0.0,100,0.00,,,0.00,Rainwise IP-100,2013-01-29 15:47:00,
2013-01-29 08:52:00,26.0,26.0,26.93,SE,135,0.0,0.0,100,0.00,,,0.00,Rainwise IP-100,2013-01-29 15:52:00,
2013-01-29 08:57:00,26.0,26.0,26.93,SE,135,0.0,0.0,100,0.00,,,0.00,Rainwise IP-100,2013-01-29 15:57:00,
2013-01-29 09:02:00,26.0,26.0,26.93,SE,135,0.0,0.0,100,0.00,,,0.00,Rainwise IP-100,2013-01-29 16:02:00,
2013-01-29 09:07:00,26.0,26.0,26.93,SE,135,0.0,0.0,100,0.00,,,0.00,Rainwise IP-100,2013-01-29 16:07:00,
2013-01-29 09:12:00,27.0,28.0,26.94,SE,135,0.0,0.0,100,0.00,,,0.00,Rainwise IP-100,2013-01-29 16:12:00,
2013-01-29 09:17:00,27.0,28.0,26.94,South,180,0.0,0.0,100,0.00,,,0.00,Rainwise IP-100,2013-01-29 16:17:00,
2013-01-29 09:22:00,27.0,28.0,26.94,WNW,292,1.0,0.0,100,0.00,,,0.00,Rainwise IP-100,2013-01-29 16:22:00,
2013-01-29 09:27:00,27.0,28.0,26.94,NW,315,1.0,2.0,100,0.00,,,0.00,Rainwise IP-100,2013-01-29 16:27:00,
2013-01-29 09:32:00,27.0,28.0,26.95,WNW,292,1.0,4.0,100,0.00,,,0.00,Rainwise IP-100,2013-01-29 16:32:00,
2013-01-29 09:37:00,27.0,28.0,26.95,WNW,292,0.0,1.0,100,0.00,,,0.00,Rainwise IP-100,2013-01-29 16:37:00,
2013-01-29 09:42:00,27.0,28.0,26.95,WNW,292,0.0,0.0,100,0.00,,,0.00,Rainwise IP-100,2013-01-29 16:42:00,
2013-01-29 09:47:00,27.0,28.0,26.95,WNW,292,2.0,4.0,100,0.00,,,0.00,Rainwise IP-100,2013-01-29 16:47:00,
2013-01-29 09:52:00,27.0,28.0,26.96,WNW,292,0.0,3.0,100,0.00,,,0.00,Rainwise IP-100,2013-01-29 16:52:00,
2013-01-29 09:57:00,27.0,28.0,26.96,WNW,292,0.0,0.0,100,0.00,,,0.00,Rainwise IP-100,2013-01-29 16:57:00,
2013-01-29 10:02:00,27.0,28.0,26.97,WNW,292,0.0,0.0,100,0.00,,,0.00,Rainwise IP-100,2013-01-29 17:02:00,
2013-01-29 10:07:00,27.0,28.0,26.97,WNW,292,0.0,0.0,100,0.00,,,0.00,Rainwise IP-100,2013-01-29 17:07:00,
2013-01-29 10:12:00,28.0,28.0,26.97,ESE,112,0.0,0.0,100,0.00,,,0.00,Rainwise IP-100,2013-01-29 17:12:00,
2013-01-29 10:17:00,28.0,28.0,26.97,ESE,112,0.0,0.0,100,0.00,,,0.00,Rainwise IP-100,2013-01-29 17:17:00,
2013-01-29 10:22:00,28.0,28.0,26.96,ESE,112,0.0,0.0,100,0.00,,,0.00,Rainwise IP-100,2013-01-29 17:22:00,
2013-01-29 10:27:00,28.0,28.0,26.96,ESE,112,0.0,0.0,100,0.00,,,0.00,Rainwise IP-100,2013-01-29 17:27:00,
2013-01-29 10:32:00,28.0,28.0,26.97,ESE,112,0.0,0.0,100,0.00,,,0.00,Rainwise IP-100,2013-01-29 17:32:00,
2013-01-29 10:37:00,28.0,28.0,26.97,NW,315,0.0,0.0,100,0.00,,,0.00,Rainwise IP-100,2013-01-29 17:37:00,
2013-01-29 10:42:00,28.0,28.0,26.98,NW,315,0.0,0.0,100,0.00,,,0.00,Rainwise IP-100,2013-01-29 17:42:00,
2013-01-29 10:47:00,28.0,28.0,26.98,NW,315,0.0,0.0,100,0.00,,,0.00,Rainwise IP-100,2013-01-29 17:47:00,
2013-01-29 10:52:00,28.0,28.0,26.98,NW,315,0.0,0.0,100,0.00,,,0.00,Rainwise IP-100,2013-01-29 17:52:00,
2013-01-29 10:57:00,28.0,28.0,26.98,NW,315,0.0,0.0,100,0.00,,,0.00,Rainwise IP-100,2013-01-29 17:57:00,
2013-01-29 11:02:00,28.0,28.0,26.99,NW,315,0.0,0.0,100,0.00,,,0.00,Rainwise IP-100,2013-01-29 18:02:00,
2013-01-29 11:07:00,29.0,29.0,26.99,NNW,337,0.0,0.0,100,0.00,,,0.00,Rainwise IP-100,2013-01-29 18:07:00,
2013-01-29 11:12:00,29.0,29.0,26.98,ESE,112,0.0,0.0,98,0.00,,,0.00,Rainwise IP-100,2013-01-29 18:12:00,
2013-01-29 11:17:00,30.0,31.0,26.98,ESE,112,0.0,0.0,98,0.00,,,0.00,Rainwise IP-100,2013-01-29 18:17:00,
2013-01-29 11:22:00,31.0,29.0,26.98,WNW,292,0.0,3.0,96,0.00,,,0.00,Rainwise IP-100,2013-01-29 18:22:00,
2013-01-29 11:27:00,31.0,28.0,26.98,ENE,67,4.0,4.0,90,0.00,,,0.00,Rainwise IP-100,2013-01-29 18:27:00,
2013-01-29 11:32:00,30.0,29.0,26.98,NE,45,2.0,6.0,93,0.00,,,0.00,Rainwise IP-100,2013-01-29 18:32:00,
2013-01-29 11:37:00,30.0,29.0,26.98,NNE,22,2.0,4.0,95,0.00,,,0.00,Rainwise IP-100,2013-01-29 18:37:00,
2013-01-29 11:42:00,30.0,29.0,26.99,NE,45,1.0,4.0,96,0.00,,,0.00,Rainwise IP-100,2013-01-29 18:42:00,
2013-01-29 11:47:00,30.0,29.0,26.99,East,90,1.0,5.0,97,0.00,,,0.00,Rainwise IP-100,2013-01-29 18:47:00,
2013-01-29 11:52:00,30.0,29.0,26.99,South,180,3.0,6.0,95,0.00,,,0.00,Rainwise IP-100,2013-01-29 18:52:00,
2013-01-29 11:57:00,31.0,29.0,26.99,North,360,0.0,5.0,95,0.00,,,0.00,Rainwise IP-100,2013-01-29 18:57:00,
2013-01-29 12:02:00,32.0,31.0,26.99,North,360,3.0,4.0,92,0.00,,,0.00,Rainwise IP-100,2013-01-29 19:02:00,
2013-01-29 12:07:00,32.0,29.0,26.99,NNW,337,5.0,7.0,89,0.00,,,0.00,Rainwise IP-100,2013-01-29 19:07:00,
2013-01-29 12:12:00,32.0,29.0,26.99,NW,315,3.0,7.0,88,0.00,,,0.00,Rainwise IP-100,2013-01-29 19:12:00,
2013-01-29 12:17:00,32.0,29.0,26.99,NE,45,2.0,6.0,87,0.00,,,0.00,Rainwise IP-100,2013-01-29 19:17:00,
2013-01-29 12:22:00,32.0,29.0,26.99,NNW,337,1.0,5.0,89,0.00,,,0.00,Rainwise IP-100,2013-01-29 19:22:00,
2013-01-29 12:27:00,33.0,31.0,26.99,NNW,337,0.0,4.0,88,0.00,,,0.00,Rainwise IP-100,2013-01-29 19:27:00,
2013-01-29 12:32:00,35.0,29.0,26.98,NNW,337,0.0,0.0,81,0.00,,,0.00,Rainwise IP-100,2013-01-29 19:32:00,
2013-01-29 12:37:00,36.0,31.0,26.98,ENE,67,1.0,1.0,79,0.00,,,0.00,Rainwise IP-100,2013-01-29 19:37:00,
2013-01-29 12:42:00,37.0,31.0,26.97,ENE,67,0.0,2.0,77,0.00,,,0.00,Rainwise IP-100,2013-01-29 19:42:00,
2013-01-29 12:47:00,37.0,29.0,26.97,East,90,0.0,4.0,74,0.00,,,0.00,Rainwise IP-100,2013-01-29 19:47:00,
2013-01-29 12:52:00,38.0,29.0,26.96,South,180,1.0,4.0,71,0.00,,,0.00,Rainwise IP-100,2013-01-29 19:52:00,
2013-01-29 12:57:00,39.0,32.0,26.96,East,90,0.0,4.0,74,0.00,,,0.00,Rainwise IP-100,2013-01-29 19:57:00,
2013-01-29 13:02:00,39.0,29.0,26.95,NNE,22,2.0,7.0,68,0.12,,,0.02,Rainwise IP-100,2013-01-29 20:02:00,
2013-01-29 13:07:00,39.0,28.0,26.95,East,90,1.0,6.0,63,0.24,,,0.04,Rainwise IP-100,2013-01-29 20:07:00,
2013-01-29 13:12:00,38.0,28.0,26.95,ENE,67,3.0,6.0,65,0.18,,,0.05,Rainwise IP-100,2013-01-29 20:12:00,
2013-01-29 13:17:00,37.0,28.0,26.95,NNE,22,3.0,6.0,68,0.12,,,0.06,Rainwise IP-100,2013-01-29 20:17:00,
2013-01-29 13:22:00,38.0,28.0,26.96,NE,45,0.0,5.0,66,0.12,,,0.07,Rainwise IP-100,2013-01-29 20:22:00,
2013-01-29 13:27:00,37.0,28.0,26.96,NNE,22,0.0,6.0,66,0.12,,,0.08,Rainwise IP-100,2013-01-29 20:27:00,
2013-01-29 13:32:00,38.0,29.0,26.97,NNW,337,3.0,3.0,68,0.12,,,0.09,Rainwise IP-100,2013-01-29 20:32:00,
2013-01-29 13:37:00,39.0,28.0,26.97,West,270,1.0,5.0,64,0.12,,,0.10,Rainwise IP-100,2013-01-29 20:37:00,
2013-01-29 13:42:00,37.0,28.0,26.95,West,270,6.0,8.0,66,0.06,,,0.10,Rainwise IP-100,2013-01-29 20:42:00,
2013-01-29 13:47:00,37.0,28.0,26.95,West,270,2.0,6.0,68,0.06,,,0.11,Rainwise IP-100,2013-01-29 20:47:00,
2013-01-29 13:52:00,37.0,28.0,26.97,WSW,247,4.0,6.0,67,0.12,,,0.12,Rainwise IP-100,2013-01-29 20:52:00,
2013-01-29 13:57:00,36.0,26.0,26.97,SSW,202,2.0,6.0,67,0.12,,,0.13,Rainwise IP-100,2013-01-29 20:57:00,
2013-01-29 14:02:00,35.0,28.0,26.98,West,270,3.0,9.0,75,0.06,,,0.13,Rainwise IP-100,2013-01-29 21:02:00,
2013-01-29 14:07:00,35.0,28.0,26.98,WSW,247,2.0,6.0,76,0.00,,,0.13,Rainwise IP-100,2013-01-29 21:07:00,
2013-01-29 14:12:00,34.0,28.0,26.99,South,180,3.0,7.0,77,0.06,,,0.14,Rainwise IP-100,2013-01-29 21:12:00,
2013-01-29 14:17:00,34.0,29.0,26.99,West,270,4.0,4.0,80,0.06,,,0.14,Rainwise IP-100,2013-01-29 21:17:00,
2013-01-29 14:22:00,33.0,28.0,27.01,West,270,1.0,7.0,81,0.00,,,0.14,Rainwise IP-100,2013-01-29 21:22:00,
2013-01-29 14:27:00,32.0,28.0,27.01,West,270,0.0,6.0,82,0.00,,,0.14,Rainwise IP-100,2013-01-29 21:27:00,
2013-01-29 14:32:00,32.0,28.0,27.01,WSW,247,0.0,3.0,83,0.00,,,0.14,Rainwise IP-100,2013-01-29 21:32:00,
2013-01-29 14:37:00,32.0,28.0,27.01,SW,225,0.0,5.0,82,0.06,,,0.15,Rainwise IP-100,2013-01-29 21:37:00,
2013-01-29 14:42:00,33.0,28.0,27.01,SW,225,0.0,3.0,79,0.06,,,0.15,Rainwise IP-100,2013-01-29 21:42:00,
2013-01-29 14:47:00,33.0,28.0,27.01,SSE,157,0.0,3.0,77,0.00,,,0.15,Rainwise IP-100,2013-01-29 21:47:00,
2013-01-29 14:52:00,33.0,28.0,27.01,SW,225,0.0,2.0,77,0.00,,,0.15,Rainwise IP-100,2013-01-29 21:52:00,
2013-01-29 14:57:00,33.0,28.0,27.01,SW,225,0.0,1.0,77,0.00,,,0.15,Rainwise IP-100,2013-01-29 21:57:00,
2013-01-29 15:02:00,33.0,26.0,27.02,SW,225,0.0,0.0,75,0.00,,,0.15,Rainwise IP-100,2013-01-29 22:02:00,
2013-01-29 15:07:00,33.0,26.0,27.02,ESE,112,0.0,0.0,75,0.00,,,0.15,Rainwise IP-100,2013-01-29 22:07:00,
2013-01-29 15:12:00,32.0,26.0,27.03,ENE,67,4.0,5.0,75,0.06,,,0.16,Rainwise IP-100,2013-01-29 22:12:00,
2013-01-29 15:17:00,32.0,26.0,27.03,ESE,112,0.0,5.0,77,0.06,,,0.16,Rainwise IP-100,2013-01-29 22:17:00,
2013-01-29 15:22:00,32.0,26.0,27.03,WSW,247,0.0,3.0,78,0.00,,,0.16,Rainwise IP-100,2013-01-29 22:22:00,
2013-01-29 15:27:00,32.0,26.0,27.03,NNE,22,3.0,7.0,78,0.00,,,0.16,Rainwise IP-100,2013-01-29 22:27:00,
2013-01-29 15:32:00,31.0,24.0,27.04,North,360,3.0,7.0,79,0.00,,,0.16,Rainwise IP-100,2013-01-29 22:32:00,
2013-01-29 15:37:00,32.0,26.0,27.04,NNE,22,4.0,5.0,79,0.00,,,0.16,Rainwise IP-100,2013-01-29 22:37:00,
2013-01-29 15:42:00,33.0,26.0,27.04,NNE,22,3.0,6.0,76,0.00,,,0.16,Rainwise IP-100,2013-01-29 22:42:00,
2013-01-29 15:47:00,33.0,26.0,27.04,NNW,337,3.0,6.0,75,0.00,,,0.16,Rainwise IP-100,2013-01-29 22:47:00,
2013-01-29 15:52:00,33.0,26.0,27.03,North,360,1.0,6.0,76,0.00,,,0.16,Rainwise IP-100,2013-01-29 22:52:00,
2013-01-29 15:57:00,32.0,26.0,27.03,WNW,292,3.0,6.0,77,0.00,,,0.16,Rainwise IP-100,2013-01-29 22:57:00,
2013-01-29 16:02:00,32.0,26.0,27.04,WSW,247,7.0,7.0,78,0.00,,,0.16,Rainwise IP-100,2013-01-29 23:02:00,
2013-01-29 16:07:00,32.0,28.0,27.04,NNW,337,7.0,9.0,85,0.00,,,0.16,Rainwise IP-100,2013-01-29 23:07:00,
2013-01-29 16:12:00,32.0,28.0,27.05,WNW,292,2.0,7.0,85,0.06,,,0.17,Rainwise IP-100,2013-01-29 23:12:00,
2013-01-29 16:17:00,32.0,28.0,27.05,WSW,247,2.0,3.0,84,0.06,,,0.17,Rainwise IP-100,2013-01-29 23:17:00,
2013-01-29 16:22:00,33.0,28.0,27.04,West,270,4.0,4.0,81,0.00,,,0.17,Rainwise IP-100,2013-01-29 23:22:00,
2013-01-29 16:27:00,34.0,29.0,27.04,WNW,292,4.0,4.0,81,0.00,,,0.17,Rainwise IP-100,2013-01-29 23:27:00,
2013-01-29 16:32:00,33.0,28.0,27.04,WNW,292,4.0,6.0,80,0.00,,,0.17,Rainwise IP-100,2013-01-29 23:32:00,
2013-01-29 16:37:00,32.0,28.0,27.04,NNW,337,6.0,8.0,83,0.00,,,0.17,Rainwise IP-100,2013-01-29 23:37:00,
2013-01-29 16:42:00,32.0,28.0,27.05,NNW,337,4.0,7.0,83,0.00,,,0.17,Rainwise IP-100,2013-01-29 23:42:00,
2013-01-29 16:47:00,31.0,26.0,27.05,West,270,4.0,6.0,85,0.00,,,0.17,Rainwise IP-100,2013-01-29 23:47:00,
2013-01-29 16:52:00,31.0,28.0,27.06,SW,225,3.0,5.0,86,0.00,,,0.17,Rainwise IP-100,2013-01-29 23:52:00,
2013-01-29 16:57:00,30.0,28.0,27.06,West,270,2.0,4.0,86,0.00,,,0.17,Rainwise IP-100,2013-01-29 23:57:00,
2013-01-29 17:02:00,30.0,28.0,27.07,SSW,202,0.0,3.0,87,0.00,,,0.17,Rainwise IP-100,2013-01-30 00:02:00,
2013-01-29 17:07:00,30.0,28.0,27.07,West,270,1.0,2.0,87,0.00,,,0.17,Rainwise IP-100,2013-01-30 00:07:00,
2013-01-29 17:12:00,30.0,28.0,27.07,West,270,0.0,2.0,88,0.00,,,0.17,Rainwise IP-100,2013-01-30 00:12:00,
2013-01-29 17:17:00,29.0,26.0,27.07,WNW,292,2.0,3.0,87,0.00,,,0.17,Rainwise IP-100,2013-01-30 00:17:00,
2013-01-29 17:22:00,29.0,26.0,27.07,WNW,292,0.0,3.0,88,0.00,,,0.17,Rainwise IP-100,2013-01-30 00:22:00,
2013-01-29 17:27:00,29.0,26.0,27.07,WNW,292,0.0,1.0,88,0.00,,,0.17,Rainwise IP-100,2013-01-30 00:27:00,
2013-01-29 17:32:00,29.0,26.0,27.07,ESE,112,1.0,3.0,88,0.00,,,0.17,Rainwise IP-100,2013-01-30 00:32:00,
2013-01-29 17:37:00,29.0,26.0,27.07,ESE,112,0.0,2.0,90,0.00,,,0.17,Rainwise IP-100,2013-01-30 00:37:00,
2013-01-29 17:42:00,29.0,26.0,27.07,ESE,112,0.0,0.0,89,0.00,,,0.17,Rainwise IP-100,2013-01-30 00:42:00,
2013-01-29 17:47:00,28.0,26.0,27.07,ESE,112,0.0,0.0,90,0.00,,,0.17,Rainwise IP-100,2013-01-30 00:47:00,
2013-01-29 17:52:00,28.0,24.0,27.07,ESE,112,0.0,0.0,88,0.00,,,0.17,Rainwise IP-100,2013-01-30 00:52:00,
2013-01-29 17:57:00,28.0,24.0,27.07,ESE,112,0.0,0.0,88,0.00,,,0.17,Rainwise IP-100,2013-01-30 00:57:00,
2013-01-29 18:02:00,28.0,26.0,27.08,ESE,112,0.0,1.0,90,0.00,,,0.17,Rainwise IP-100,2013-01-30 01:02:00,
2013-01-29 18:07:00,28.0,26.0,27.08,ESE,112,0.0,0.0,91,0.00,,,0.17,Rainwise IP-100,2013-01-30 01:07:00,
2013-01-29 18:12:00,28.0,26.0,27.08,ESE,112,0.0,0.0,92,0.00,,,0.17,Rainwise IP-100,2013-01-30 01:12:00,
2013-01-29 18:17:00,28.0,26.0,27.08,ESE,112,0.0,0.0,91,0.00,,,0.17,Rainwise IP-100,2013-01-30 01:17:00,
2013-01-29 18:22:00,28.0,26.0,27.08,ESE,112,0.0,0.0,92,0.00,,,0.17,Rainwise IP-100,2013-01-30 01:22:00,
2013-01-29 18:27:00,28.0,26.0,27.08,ESE,112,0.0,1.0,92,0.00,,,0.17,Rainwise IP-100,2013-01-30 01:27:00,
2013-01-29 18:32:00,28.0,26.0,27.08,ESE,112,0.0,0.0,93,0.00,,,0.17,Rainwise IP-100,2013-01-30 01:32:00,
2013-01-29 18:37:00,28.0,26.0,27.08,SW,225,0.0,2.0,92,0.00,,,0.17,Rainwise IP-100,2013-01-30 01:37:00,
2013-01-29 18:42:00,28.0,26.0,27.08,SW,225,0.0,0.0,92,0.00,,,0.17,Rainwise IP-100,2013-01-30 01:42:00,
2013-01-29 18:47:00,28.0,26.0,27.08,WSW,247,1.0,3.0,93,0.00,,,0.17,Rainwise IP-100,2013-01-30 01:47:00,
2013-01-29 18:52:00,28.0,26.0,27.08,WSW,247,0.0,2.0,93,0.00,,,0.17,Rainwise IP-100,2013-01-30 01:52:00,
2013-01-29 18:57:00,28.0,26.0,27.08,WSW,247,0.0,1.0,94,0.00,,,0.17,Rainwise IP-100,2013-01-30 01:57:00,
2013-01-29 19:02:00,27.0,26.0,27.08,SW,225,0.0,2.0,93,0.00,,,0.17,Rainwise IP-100,2013-01-30 02:02:00,
2013-01-29 19:07:00,27.0,26.0,27.08,SSW,202,0.0,2.0,94,0.00,,,0.17,Rainwise IP-100,2013-01-30 02:07:00,
2013-01-29 19:12:00,27.0,26.0,27.08,SW,225,1.0,2.0,94,0.00,,,0.17,Rainwise IP-100,2013-01-30 02:12:00,
2013-01-29 19:17:00,27.0,26.0,27.08,SW,225,0.0,2.0,94,0.00,,,0.17,Rainwise IP-100,2013-01-30 02:17:00,
2013-01-29 19:22:00,27.0,26.0,27.09,SW,225,0.0,2.0,94,0.00,,,0.17,Rainwise IP-100,2013-01-30 02:22:00,
2013-01-29 19:27:00,27.0,26.0,27.09,West,270,1.0,3.0,94,0.00,,,0.17,Rainwise IP-100,2013-01-30 02:27:00,
2013-01-29 19:32:00,28.0,26.0,27.08,WNW,292,3.0,4.0,94,0.00,,,0.17,Rainwise IP-100,2013-01-30 02:32:00,
2013-01-29 19:37:00,28.0,26.0,27.08,WNW,292,4.0,4.0,95,0.00,,,0.17,Rainwise IP-100,2013-01-30 02:37:00,
2013-01-29 19:42:00,28.0,26.0,27.08,WNW,292,2.0,5.0,95,0.00,,,0.17,Rainwise IP-100,2013-01-30 02:42:00,
2013-01-29 19:47:00,28.0,26.0,27.08,WNW,292,1.0,3.0,95,0.00,,,0.17,Rainwise IP-100,2013-01-30 02:47:00,
2013-01-29 19:52:00,28.0,26.0,27.09,WSW,247,1.0,3.0,95,0.00,,,0.17,Rainwise IP-100,2013-01-30 02:52:00,
2013-01-29 19:57:00,28.0,26.0,27.09,SW,225,2.0,2.0,96,0.00,,,0.17,Rainwise IP-100,2013-01-30 02:57:00,
2013-01-29 20:02:00,28.0,26.0,27.09,WSW,247,0.0,6.0,95,0.00,,,0.17,Rainwise IP-100,2013-01-30 03:02:00,
2013-01-29 20:07:00,28.0,26.0,27.09,SW,225,1.0,3.0,95,0.00,,,0.17,Rainwise IP-100,2013-01-30 03:07:00,
2013-01-29 20:12:00,28.0,26.0,27.09,WNW,292,0.0,4.0,95,0.00,,,0.17,Rainwise IP-100,2013-01-30 03:12:00,
2013-01-29 20:17:00,28.0,26.0,27.09,WSW,247,0.0,4.0,95,0.00,,,0.17,Rainwise IP-100,2013-01-30 03:17:00,
2013-01-29 20:22:00,28.0,26.0,27.09,West,270,2.0,6.0,93,0.00,,,0.17,Rainwise IP-100,2013-01-30 03:22:00,
2013-01-29 20:27:00,28.0,26.0,27.09,WNW,292,2.0,7.0,93,0.00,,,0.17,Rainwise IP-100,2013-01-30 03:27:00,
2013-01-29 20:32:00,28.0,26.0,27.09,NW,315,2.0,6.0,93,0.00,,,0.17,Rainwise IP-100,2013-01-30 03:32:00,
2013-01-29 20:37:00,28.0,26.0,27.09,NNW,337,0.0,5.0,93,0.00,,,0.17,Rainwise IP-100,2013-01-30 03:37:00,
2013-01-29 20:42:00,28.0,26.0,27.10,NNW,337,3.0,6.0,95,0.00,,,0.17,Rainwise IP-100,2013-01-30 03:42:00,
2013-01-29 20:47:00,28.0,26.0,27.10,NW,315,2.0,4.0,95,0.00,,,0.17,Rainwise IP-100,2013-01-30 03:47:00,
2013-01-29 20:52:00,28.0,26.0,27.10,WNW,292,4.0,4.0,95,0.00,,,0.17,Rainwise IP-100,2013-01-30 03:52:00,
2013-01-29 20:57:00,28.0,26.0,27.10,WNW,292,0.0,5.0,96,0.00,,,0.17,Rainwise IP-100,2013-01-30 03:57:00,
2013-01-29 21:02:00,28.0,28.0,27.10,WNW,292,0.0,7.0,97,0.00,,,0.17,Rainwise IP-100,2013-01-30 04:02:00,
2013-01-29 21:07:00,28.0,26.0,27.10,WSW,247,3.0,4.0,96,0.00,,,0.17,Rainwise IP-100,2013-01-30 04:07:00,
2013-01-29 21:12:00,28.0,26.0,27.10,West,270,2.0,6.0,96,0.00,,,0.17,Rainwise IP-100,2013-01-30 04:12:00,
2013-01-29 21:17:00,28.0,28.0,27.10,SE,135,3.0,4.0,97,0.00,,,0.17,Rainwise IP-100,2013-01-30 04:17:00,
2013-01-29 21:22:00,28.0,28.0,27.09,SSW,202,0.0,3.0,97,0.00,,,0.17,Rainwise IP-100,2013-01-30 04:22:00,
2013-01-29 21:27:00,27.0,28.0,27.09,South,180,3.0,5.0,97,0.00,,,0.17,Rainwise IP-100,2013-01-30 04:27:00,
2013-01-29 21:32:00,27.0,28.0,27.09,SSE,157,2.0,5.0,97,0.00,,,0.17,Rainwise IP-100,2013-01-30 04:32:00,
2013-01-29 21:37:00,27.0,28.0,27.09,South,180,2.0,5.0,97,0.00,,,0.17,Rainwise IP-100,2013-01-30 04:37:00,
2013-01-29 21:42:00,27.0,28.0,27.09,SSE,157,2.0,5.0,98,0.00,,,0.17,Rainwise IP-100,2013-01-30 04:42:00,
2013-01-29 21:47:00,27.0,28.0,27.09,South,180,2.0,6.0,98,0.00,,,0.17,Rainwise IP-100,2013-01-30 04:47:00,
2013-01-29 21:52:00,27.0,28.0,27.09,SSW,202,0.0,5.0,98,0.00,,,0.17,Rainwise IP-100,2013-01-30 04:52:00,
2013-01-29 21:57:00,27.0,28.0,27.09,WSW,247,0.0,4.0,98,0.00,,,0.17,Rainwise IP-100,2013-01-30 04:57:00,
2013-01-29 22:00:00,27.0,28.0,27.09,SSW,202,3.0,4.0,98,0.00,,,0.17,Rainwise IP-100,2013-01-30 05:00:00,
2013-01-29 22:05:00,27.0,28.0,27.09,SSW,202,1.0,5.0,98,0.00,,,0.17,Rainwise IP-100,2013-01-30 05:05:00,
2013-01-29 22:10:00,27.0,28.0,27.09,WNW,292,4.0,5.0,97,0.00,,,0.17,Rainwise IP-100,2013-01-30 05:10:00,
2013-01-29 22:15:00,27.0,28.0,27.09,West,270,0.0,6.0,98,0.00,,,0.17,Rainwise IP-100,2013-01-30 05:15:00,
2013-01-29 22:20:00,27.0,28.0,27.08,WNW,292,1.0,4.0,97,0.00,,,0.17,Rainwise IP-100,2013-01-30 05:20:00,
2013-01-29 22:25:00,27.0,28.0,27.08,WNW,292,2.0,4.0,98,0.00,,,0.17,Rainwise IP-100,2013-01-30 05:25:00,
2013-01-29 22:30:00,27.0,28.0,27.08,SSW,202,1.0,3.0,97,0.00,,,0.17,Rainwise IP-100,2013-01-30 05:30:00,
2013-01-29 22:35:00,27.0,28.0,27.08,WSW,247,0.0,4.0,97,0.00,,,0.17,Rainwise IP-100,2013-01-30 05:35:00,
2013-01-29 22:40:00,27.0,28.0,27.08,WSW,247,1.0,3.0,98,0.00,,,0.17,Rainwise IP-100,2013-01-30 05:40:00,
2013-01-29 22:45:00,27.0,28.0,27.08,WSW,247,0.0,4.0,98,0.00,,,0.17,Rainwise IP-100,2013-01-30 05:45:00,
2013-01-29 22:50:00,27.0,28.0,27.07,WSW,247,1.0,3.0,98,0.00,,,0.17,Rainwise IP-100,2013-01-30 05:50:00,
2013-01-29 22:55:00,27.0,28.0,27.07,South,180,3.0,6.0,98,0.00,,,0.17,Rainwise IP-100,2013-01-30 05:55:00,
2013-01-29 23:00:00,27.0,28.0,27.08,SSW,202,2.0,6.0,98,0.00,,,0.17,Rainwise IP-100,2013-01-30 06:00:00,
2013-01-29 23:05:00,27.0,28.0,27.08,SSW,202,1.0,5.0,98,0.00,,,0.17,Rainwise IP-100,2013-01-30 06:05:00,
2013-01-29 23:10:00,27.0,28.0,27.07,South,180,3.0,3.0,98,0.00,,,0.17,Rainwise IP-100,2013-01-30 06:10:00,
2013-01-29 23:15:00,27.0,28.0,27.07,SSW,202,1.0,4.0,98,0.00,,,0.17,Rainwise IP-100,2013-01-30 06:15:00,
2013-01-29 23:20:00,27.0,28.0,27.07,South,180,3.0,4.0,98,0.00,,,0.17,Rainwise IP-100,2013-01-30 06:20:00,
2013-01-29 23:25:00,27.0,28.0,27.07,South,180,2.0,5.0,98,0.00,,,0.17,Rainwise IP-100,2013-01-30 06:25:00,
2013-01-29 23:30:00,27.0,28.0,27.07,SSW,202,0.0,4.0,98,0.00,,,0.17,Rainwise IP-100,2013-01-30 06:30:00,
2013-01-29 23:35:00,27.0,28.0,27.07,SSW,202,0.0,1.0,98,0.00,,,0.17,Rainwise IP-100,2013-01-30 06:35:00,
2013-01-29 23:40:00,27.0,28.0,27.07,SSW,202,0.0,2.0,98,0.00,,,0.17,Rainwise IP-100,2013-01-30 06:40:00,
2013-01-29 23:45:00,27.0,28.0,27.07,SSW,202,0.0,1.0,99,0.00,,,0.17,Rainwise IP-100,2013-01-30 06:45:00,
2013-01-29 23:50:00,27.0,28.0,27.07,SSW,202,1.0,1.0,99,0.00,,,0.17,Rainwise IP-100,2013-01-30 06:50:00,
2013-01-29 23:55:00,27.0,28.0,27.07,SSW,202,0.0,2.0,98,0.00,,,0.17,Rainwise IP-100,2013-01-30 06:55:00,